Theta_e
313 312 313 313 313 317 321 322 321 320 322 323 319 319 317 316 317 317 318 317 316 316 315 316 316 316 317 317 317 317 317 320 319 318 319 320 319 319 319 318 319 319 319 322 323 325 329 331 332 331 331 330 333 336 337 337 337 336 334 331 329 330 330 332 333 334 334 336 336 327 321 322 322 322 321 322 322 321 322 321 321 320 321 327 330 333 335 333 333 334 332 324 322 323 324 324 323
313 313 313 313 316 322 322 320 325 327 325 320 316 318 316 315 317 318 321 318 317 316 316 317 316 317 317 317 317 317 317 318 318 318 318 318 318 317 318 319 318 319 319 321 323 324 326 329 330 330 330 329 331 334 335 335 336 335 333 330 329 329 330 332 332 333 333 335 335 327 321 322 322 322 322 322 323 322 322 322 321 321 323 327 330 333 334 333 332 333 331 326 321 319 321 322 322
312 313 314 316 320 321 323 320 323 330 326 318 318 321 316 316 320 320 319 316 316 316 317 317 316 318 317 318 317 317 318 317 318 318 318 317 317 316 317 318 317 319 319 320 322 323 325 327 328 328 328 329 329 331 333 333 335 334 331 330 329 329 330 330 330 331 334 335 333 326 322 322 322 323 323 323 323 323 323 322 321 322 324 327 329 331 332 332 332 331 330 327 323 319 317 317 316
313 315 316 319 321 320 331 329 327 332 323 319 319 321 321 320 321 317 315 316 316 317 317 317 317 318 317 318 317 317 317 317 318 318 317 316 315 315 316 317 317 318 319 320 321 323 325 326 327 327 327 328 328 329 332 332 333 333 331 330 329 330 329 328 328 331 334 335 330 325 322 323 323 323 323 323 324 323 322 321 322 322 324 327 328 329 329 330 330 330 329 327 325 322 320 317 314
315 318 318 320 322 319 328 327 327 329 319 321 318 317 324 323 321 313 314 317 316 318 317 317 317 317 317 317 317 317 317 318 318 318 317 315 315 314 315 316 316 317 319 319 320 322 324 325 326 327 327 327 327 327 329 330 332 333 332 330 330 329 328 326 327 331 333 333 329 324 323 323 323 323 323 323 323 323 322 321 322 323 324 328 329 330 329 328 329 328 327 326 324 321 319 317 313
318 319 319 320 320 316 322 322 322 323 318 322 318 316 321 316 316 313 314 318 317 318 317 317 317 316 316 317 317 317 317 317 317 318 317 315 315 314 315 315 315 316 318 319 319 320 321 324 325 326 327 326 326 327 327 328 331 333 332 331 330 330 327 325 327 330 332 331 327 325 324 323 324 323 323 323 322 323 322 320 323 323 324 328 330 331 330 328 328 327 325 324 320 316 315 313 311
318 320 319 320 320 317 327 327 321 322 317 315 315 318 316 311 312 313 315 317 317 317 317 317 316 316 316 316 317 317 317 317 317 318 317 315 315 315 315 314 315 315 316 319 319 319 320 322 323 324 326 326 326 326 327 328 331 331 331 332 331 330 327 325 325 327 330 329 327 326 325 325 325 324 323 322 322 325 323 321 323 323 324 328 330 330 330 328 325 322 319 317 314 312 312 311 309
318 319 318 324 326 324 332 327 322 322 315 310 312 315 313 311 312 313 315 316 317 316 316 317 316 316 316 315 316 317 317 317 317 317 316 315 315 316 315 315 314 314 315 317 319 319 319 320 321 323 324 325 326 326 326 328 331 332 331 332 331 330 329 327 325 325 327 329 327 326 327 327 326 326 325 324 326 327 323 321 323 323 325 327 328 328 327 323 318 315 312 310 310 311 311 310 308
318 319 318 326 330 329 331 323 319 319 317 314 312 313 313 313 313 314 315 314 315 314 314 316 316 316 315 315 316 316 316 316 317 317 316 315 316 316 316 315 314 314 315 316 318 319 319 320 321 321 323 324 325 325 326 327 330 332 332 331 330 330 329 328 325 324 325 327 326 326 328 328 327 326 326 328 330 330 325 322 323 324 326 325 323 323 320 317 314 312 310 309 310 310 311 309 305
318 319 317 324 330 326 325 320 319 319 318 316 312 313 314 313 314 314 314 314 313 314 315 316 316 316 315 315 315 316 316 316 316 317 315 315 316 316 316 315 315 315 315 316 317 319 320 320 321 321 322 323 324 325 326 327 329 331 331 331 330 330 329 326 324 323 323 324 325 325 325 325 326 325 325 327 329 330 328 325 322 324 325 321 318 317 315 314 312 310 309 310 310 309 310 307 304
318 318 317 327 332 323 322 322 323 323 321 316 312 313 314 314 314 313 313 313 313 314 315 316 316 315 315 314 315 316 315 315 316 316 315 315 315 315 316 316 316 315 315 315 315 317 319 320 320 321 322 323 324 324 325 327 328 329 332 332 330 331 330 327 325 325 323 324 324 324 324 324 324 324 326 328 327 327 328 328 325 322 321 319 319 318 316 314 311 309 309 310 311 309 307 305 303
319 320 327 335 329 322 322 324 324 329 328 320 315 313 313 313 314 314 314 314 313 314 315 316 316 315 314 314 315 315 315 315 315 315 315 315 316 315 315 316 316 316 315 315 314 315 316 318 319 320 321 322 323 324 324 326 327 328 330 330 330 331 331 328 328 327 326 326 326 325 325 324 324 324 325 328 329 326 326 330 330 326 324 322 322 320 317 315 311 308 308 309 310 308 305 304 303
318 319 333 329 318 321 322 321 322 326 327 318 314 313 314 313 314 315 315 315 314 314 316 315 315 315 315 314 314 314 315 315 315 315 315 315 316 315 315 315 316 316 316 315 315 314 315 316 317 319 320 321 322 323 323 324 325 327 329 329 328 329 328 329 329 329 328 328 327 326 326 324 324 324 324 327 330 330 328 329 332 331 328 326 324 322 320 318 313 308 307 307 308 306 304 303 303
317 317 328 323 313 320 321 319 320 321 320 316 314 313 314 314 314 315 314 316 315 314 316 315 315 315 314 314 314 314 314 315 315 314 315 315 316 316 315 315 315 316 316 316 315 315 315 315 315 317 318 320 322 322 323 323 323 325 327 328 327 327 326 327 328 329 329 328 328 327 326 324 324 324 325 327 330 331 330 329 331 332 330 328 327 325 323 322 316 309 306 306 306 305 304 303 303
316 313 322 325 318 320 318 318 323 323 318 315 315 313 314 315 315 315 314 316 316 315 316 315 315 315 315 314 314 314 314 314 314 314 314 315 316 317 316 315 315 315 316 316 315 315 315 315 315 315 316 318 320 322 323 323 324 324 325 326 327 327 325 326 327 328 328 328 328 327 327 325 324 324 323 325 328 329 329 329 330 331 331 330 329 327 324 323 318 310 306 306 306 305 304 303 303
315 313 322 326 320 320 318 317 321 323 317 313 314 314 314 315 315 315 314 315 315 315 315 315 315 315 314 314 314 314 314 314 314 314 314 315 315 316 316 315 315 315 315 315 316 316 315 316 315 315 315 316 317 319 322 324 324 325 325 325 325 325 325 326 326 327 328 327 328 327 327 326 324 323 322 324 326 328 329 328 329 330 331 330 329 327 325 323 319 312 308 305 305 305 304 303 303
313 319 328 323 318 320 319 319 319 320 319 313 313 314 315 316 315 315 315 314 315 315 315 315 314 314 314 313 314 314 314 314 314 315 314 314 315 315 316 316 315 315 316 315 315 316 316 316 315 316 315 315 316 317 319 321 324 326 327 327 327 326 326 326 326 327 327 327 327 327 327 326 325 323 323 322 324 326 327 326 327 328 330 330 329 328 325 324 321 316 309 305 306 305 304 303 303
317 328 327 315 317 320 318 322 317 316 318 315 313 314 315 316 315 315 315 314 314 315 315 315 314 313 313 313 313 313 314 314 314 315 314 314 315 315 315 316 316 315 315 315 315 316 316 316 316 316 315 316 316 316 316 318 321 324 326 328 328 328 328 328 328 327 327 327 327 327 327 326 326 324 323 322 322 323 325 325 325 326 329 329 329 329 327 325 322 318 312 306 306 305 305 304 303
319 326 323 316 321 318 314 317 313 313 316 314 314 313 314 315 315 315 315 315 314 314 315 314 314 313 313 313 313 313 313 314 314 314 315 315 314 315 315 315 315 315 315 315 315 315 315 316 316 315 315 315 316 316 316 316 317 319 322 325 326 327 328 329 330 329 328 327 327 327 326 325 326 324 322 322 324 323 322 322 322 325 328 327 327 328 328 325 322 320 316 310 306 306 305 304 303
315 320 323 322 319 314 312 314 313 314 314 313 314 313 314 315 314 315 314 314 313 313 314 314 314 314 313 313 313 313 314 314 314 314 314 314 314 315 315 314 314 314 314 314 315 315 315 315 316 316 315 315 315 316 317 317 317 318 319 321 324 325 326 327 328 329 328 328 329 328 326 325 325 325 323 320 322 325 323 319 321 325 327 326 327 327 327 325 321 320 320 313 308 306 306 305 303
315 318 323 319 311 313 315 314 315 315 314 314 313 313 314 314 314 314 314 314 314 312 312 313 313 313 313 313 313 314 314 314 314 314 314 314 314 314 314 314 314 314 314 314 314 314 314 315 315 316 315 315 315 316 317 318 319 319 320 321 323 324 328 330 327 326 327 327 327 327 327 326 326 327 328 325 322 323 322 318 319 323 324 324 326 326 326 325 321 321 322 316 311 308 307 307 304
316 317 316 314 311 315 316 314 316 315 314 313 312 313 313 313 313 314 314 315 315 312 311 312 312 312 313 313 313 313 313 314 314 313 313 313 313 313 313 313 314 314 314 314 314 313 314 314 315 316 315 315 315 316 317 318 319 320 321 322 323 323 327 329 330 332 331 328 326 328 327 323 324 326 327 329 327 324 321 318 322 324 323 324 325 326 326 323 322 324 323 318 314 311 309 309 307
318 316 312 313 313 315 316 315 315 314 314 313 312 313 312 312 312 313 313 313 313 311 311 311 311 312 313 313 313 313 313 313 313 313 313 313 313 313 313 313 313 313 313 313 313 313 313 313 314 315 315 315 315 316 317 317 319 320 321 322 322 325 328 325 328 334 332 328 327 329 328 326 327 327 327 327 326 324 321 320 327 330 329 327 326 327 326 322 322 324 323 320 316 313 312 313 310
318 319 313 314 313 313 314 314 313 313 313 313 312 311 311 312 312 312 311 311 311 311 311 311 311 312 312 313 312 313 313 313 313 313 312 312 312 312 313 313 313 313 313 313 313 314 314 314 314 315 316 315 315 316 317 318 319 320 321 322 322 328 335 332 330 333 332 330 330 329 328 330 332 332 332 329 326 325 323 321 324 328 330 330 329 330 328 323 323 323 323 320 316 315 315 315 314
318 319 314 313 313 313 313 312 313 313 312 312 311 310 311 312 311 311 310 310 310 310 310 310 311 311 311 312 312 312 313 312 312 312 312 312 312 312 312 312 312 312 312 312 313 313 314 314 314 315 315 315 315 316 317 318 320 322 322 323 324 326 331 333 330 331 333 333 334 332 329 331 332 332 333 331 331 329 327 326 324 323 325 328 330 328 325 324 325 324 323 320 318 319 318 316 316
315 315 313 312 313 312 313 313 313 313 312 312 311 310 311 311 311 310 308 309 310 309 310 310 310 310 311 312 311 311 311 312 312 312 312 311 311 311 311 311 311 311 312 312 312 313 313 314 314 315 315 315 315 316 316 319 320 322 323 323 325 324 323 327 326 326 330 332 332 333 332 331 331 331 330 331 333 330 327 329 329 326 322 323 324 324 324 325 325 324 322 319 321 322 319 317 317
313 312 312 312 312 312 312 313 313 312 312 311 312 312 311 309 311 312 308 307 309 309 310 310 309 310 312 312 312 311 310 310 311 311 311 311 311 311 311 311 311 311 311 312 312 312 313 314 314 314 315 315 315 316 316 318 320 321 323 323 324 324 323 324 325 324 326 329 331 331 330 330 330 330 330 330 331 328 326 327 327 326 321 319 322 325 326 325 325 325 322 319 320 322 319 317 318
312 311 313 313 311 312 312 312 312 313 313 311 311 310 309 309 312 312 307 307 308 308 310 309 310 311 312 312 312 311 310 310 309 309 310 311 311 310 310 310 311 311 311 312 312 312 312 313 315 315 315 316 316 317 317 319 321 321 322 323 323 325 325 323 323 323 324 325 327 327 326 328 330 330 330 329 328 326 325 324 322 322 322 322 324 325 325 326 327 325 323 322 322 321 319 317 317
311 311 314 315 314 315 312 310 310 311 313 311 310 313 314 312 310 308 306 308 308 308 310 310 310 312 312 312 311 310 310 309 309 309 309 309 310 310 310 310 310 311 311 311 311 311 312 313 314 315 315 316 317 318 319 319 321 321 322 322 322 324 324 324 324 323 324 326 324 323 325 328 330 330 329 328 326 325 324 322 321 323 325 325 325 325 325 328 327 325 325 326 324 321 319 318 317
312 309 312 316 317 319 312 308 310 311 313 311 311 318 321 315 308 306 307 307 308 309 310 310 311 311 311 311 310 310 309 309 309 308 308 308 308 308 308 309 309 310 310 311 311 311 311 312 314 315 316 316 317 318 319 320 320 321 321 321 322 322 321 323 326 325 324 328 327 324 324 326 328 327 326 326 325 324 323 323 323 324 325 325 326 326 325 325 325 324 324 324 322 321 320 320 319
315 310 314 318 315 322 317 308 311 314 312 310 312 318 320 315 308 306 307 307 308 309 310 310 310 310 309 309 309 309 309 309 309 308 308 307 307 308 308 308 308 309 310 310 311 311 312 313 314 315 316 316 316 317 317 318 318 320 321 321 321 321 321 320 325 327 324 325 327 324 323 325 326 324 322 323 322 322 323 323 322 323 323 323 324 324 324 325 324 323 323 322 321 321 320 320 320
320 314 322 323 315 324 324 308 309 314 312 309 313 318 318 314 308 307 307 308 308 308 310 310 309 308 307 307 308 308 309 309 308 307 307 307 306 307 307 308 308 309 310 311 311 312 313 313 314 316 316 316 316 317 317 317 318 319 320 321 320 321 322 320 321 325 324 324 326 325 324 326 326 324 323 323 322 323 323 323 323 324 323 322 322 322 323 325 323 322 322 322 322 322 321 320 320
323 316 321 325 317 320 321 311 307 309 310 310 312 317 319 313 307 307 307 307 308 308 309 309 307 306 305 306 307 307 308 308 307 307 306 306 306 306 307 307 308 309 311 312 313 314 313 314 315 315 315 315 315 315 316 316 317 318 319 320 321 320 321 321 321 323 324 324 325 325 324 325 325 325 325 324 324 324 324 324 324 324 323 323 324 322 322 323 323 323 322 322 324 323 321 321 320
323 315 317 322 318 316 318 318 311 306 310 313 312 314 317 312 305 306 308 307 307 308 309 308 305 304 304 305 306 306 307 307 306 306 306 306 306 306 307 308 309 310 311 312 313 313 313 313 314 313 313 313 313 313 314 315 315 317 318 318 319 319 319 320 321 321 322 322 322 322 322 323 324 324 323 323 323 323 324 324 324 324 323 324 325 324 321 322 324 323 323 322 323 322 321 321 320
327 320 318 320 318 316 317 319 314 310 314 316 315 315 317 314 307 305 307 307 307 308 308 306 303 303 303 304 304 305 305 305 305 305 305 305 305 306 307 308 309 309 310 311 312 312 312 312 313 312 311 312 311 312 312 312 314 314 316 317 317 317 317 318 318 317 318 319 320 320 320 320 321 321 320 320 321 322 323 323 323 322 322 322 323 323 321 322 323 321 321 321 321 321 321 320 319
327 325 324 324 321 318 318 318 312 310 314 318 318 318 318 316 312 306 305 306 306 307 306 303 302 302 302 303 303 303 304 304 304 304 304 304 305 306 307 308 308 309 309 310 310 311 311 312 312 311 311 313 313 314 314 313 313 311 312 314 315 315 315 315 314 314 316 316 317 318 318 318 318 318 318 318 318 320 321 321 321 320 320 320 321 322 321 321 322 321 320 320 320 321 320 320 319
321 323 325 325 323 319 318 317 311 307 313 319 316 316 316 315 314 307 303 304 304 304 302 301 301 301 302 302 302 303 303 303 303 303 304 304 305 306 307 307 308 308 309 309 310 310 311 311 311 311 312 315 314 314 314 313 312 311 310 311 311 311 312 312 311 312 312 312 313 313 314 315 315 315 315 315 315 316 317 318 318 318 317 317 318 318 319 319 319 319 319 319 319 319 319 318 318
317 320 321 320 320 319 316 314 312 307 312 319 314 313 315 313 314 307 301 303 302 301 300 300 301 301 301 301 301 302 302 303 303 303 303 304 305 306 306 307 307 308 308 309 310 310 310 311 310 311 312 312 312 311 311 310 310 310 309 309 309 309 309 309 308 308 307 307 308 308 308 308 309 309 310 309 310 311 313 314 315 314 313 313 315 316 316 316 316 316 317 317 317 317 316 316 315
315 317 317 317 316 317 316 314 312 308 312 319 315 313 314 313 314 306 300 302 302 300 300 300 301 301 300 301 301 301 302 303 303 303 304 304 305 306 306 307 307 307 307 307 308 309 309 309 309 309 309 308 308 308 307 307 307 307 307 307 307 307 307 307 307 306 306 306 306 306 306 306 306 306 306 306 306 307 308 308 308 308 308 309 310 311 312 312 313 313 314 314 314 314 313 313 312
314 316 315 316 315 317 321 317 312 310 310 314 313 313 313 312 313 306 299 300 300 299 300 300 301 301 300 301 301 301 302 302 303 303 304 304 305 305 305 306 306 305 306 306 306 307 307 307 307 307 306 306 306 306 306 306 307 306 307 306 306 306 306 306 306 306 306 306 306 306 306 306 306 306 306 306 306 306 305 305 305 305 305 305 305 305 306 306 307 308 308 308 309 309 309 309 308
315 315 313 315 315 316 320 317 314 314 312 310 310 315 318 317 316 311 302 299 299 298 299 299 299 300 300 300 301 302 302 302 303 304 304 304 304 305 305 305 305 305 305 305 306 306 306 305 306 306 305 306 305 305 306 305 305 305 305 305 305 305 305 305 305 305 305 305 305 305 305 305 305 305 305 305 306 305 305 305 305 305 304 304 304 304 303 303 303 303 303 303 304 304 305 305 306
317 317 314 313 315 317 318 315 314 318 319 312 310 319 327 325 320 315 305 301 300 298 297 298 298 299 299 300 300 301 301 302 303 303 303 304 304 304 304 305 305 305 305 305 305 305 305 305 304 304 304 304 304 303 303 303 304 304 304 304 304 304 304 304 304 303 303 304 303 303 303 303 303 304 304 304 304 304 304 304 304 304 303 303 303 303 303 302 302 302 302 301 301 301 301 302 303
320 319 315 312 313 316 318 316 316 322 322 312 309 317 327 325 322 317 306 303 303 300 298 298 298 298 298 299 300 300 301 302 302 303 303 303 304 304 304 304 304 304 304 303 303 303 303 303 303 303 302 302 302 302 302 302 302 302 302 302 303 303 303 303 302 302 302 302 302 302 302 302 302 302 302 302 302 302 302 302 302 302 301 301 301 301 301 301 300 300 300 300 300 300 300 300 300
323 317 315 315 314 317 318 316 318 321 319 313 310 314 319 319 320 315 305 306 308 303 300 298 297 298 299 299 300 300 301 301 302 303 303 303 303 303 303 303 303 302 302 302 302 302 302 302 302 302 302 302 302 301 301 301 301 301 302 302 302 302 302 301 301 301 301 301 301 301 300 300 300 300 300 300 300 300 299 299 299 299 299 299 298 298 298 297 297 297 296 296 297 297 297 297 297
321 311 311 315 315 317 318 317 318 315 314 318 317 313 315 320 320 312 305 309 315 311 305 300 298 298 298 299 300 300 301 301 302 302 303 303 303 303 302 302 302 302 302 301 301 301 301 301 301 301 301 301 301 301 300 301 300 300 301 301 301 300 300 300 300 300 300 299 299 299 299 299 299 298 298 298 298 297 297 297 296 296 296 296 295 295 294 294 293 293 293 293 292 292 293 293 292
312 306 310 313 312 314 315 316 317 313 313 320 320 314 316 323 323 316 310 314 319 315 306 300 299 298 299 300 300 300 301 301 302 302 302 303 302 302 302 301 301 301 301 301 301 301 301 301 301 301 300 300 300 300 300 300 300 299 300 300 299 299 299 299 299 299 298 298 298 298 297 297 296 296 296 295 295 295 295 294 294 294 294 293 293 292 292 292 291 291 291 290 290 290 290 290 289
306 310 315 314 316 316 316 317 316 314 318 321 318 314 315 320 324 319 314 316 317 316 310 301 298 298 299 300 300 300 301 301 301 302 302 302 301 301 301 301 301 301 301 300 300 300 300 300 300 300 300 299 299 299 299 299 299 299 299 299 299 298 298 298 297 297 297 296 296 296 295 295 294 294 294 293 293 293 293 293 293 293 292 292 292 292 291 291 291 290 290 289 289 289 289 289 289
308 320 319 316 320 317 317 320 316 317 324 321 313 311 313 317 324 321 315 314 313 315 317 308 299 298 299 300 300 300 301 301 301 302 302 301 301 301 301 300 300 300 300 300 300 299 299 299 299 299 299 299 299 298 298 298 298 298 298 298 298 297 297 296 296 296 295 294 295 294 294 293 293 293 293 292 292 292 292 292 292 291 291 291 291 291 290 290 290 290 289 289 289 289 288 288 288
312 321 319 321 324 318 319 322 317 319 321 314 309 311 313 315 320 321 318 316 311 307 308 305 299 298 300 300 300 300 301 301 301 301 301 301 301 301 300 300 300 300 299 299 299 299 299 299 298 298 299 298 298 298 298 298 297 297 297 297 297 296 296 295 295 295 294 294 294 293 293 293 292 292 292 292 292 291 291 291 291 291 291 291 290 290 290 289 289 289 289 289 289 289 288 288 288
312 317 319 324 324 323 327 323 317 320 317 309 308 311 314 315 316 317 316 311 304 299 299 300 299 299 300 301 300 300 300 301 301 301 301 301 301 300 300 300 299 299 299 299 299 298 298 298 298 298 298 298 298 297 297 297 297 296 296 296 296 296 295 295 295 295 294 294 293 293 293 292 292 292 292 291 291 290 290 290 290 290 289 289 289 289 289 289 289 289 289 288 288 288 288 288 288
312 316 317 321 323 326 329 325 324 324 318 311 308 313 319 319 314 309 304 299 297 298 299 299 299 299 300 301 300 300 300 301 301 301 301 301 301 300 300 299 299 299 299 298 298 298 298 298 297 297 297 297 297 297 296 296 296 296 296 296 296 295 295 295 294 294 294 294 293 293 293 292 292 292 291 291 290 290 289 289 289 288 288 288 288 288 288 288 288 288 288 288 288 288 288 288 288
312 313 315 318 322 324 320 317 318 319 319 315 311 315 319 316 310 302 297 297 297 297 298 298 299 299 299 300 300 300 301 301 301 301 301 300 300 300 300 299 299 299 298 298 298 298 297 297 297 297 297 297 297 296 296 296 296 296 295 295 295 295 294 294 294 294 293 293 293 293 292 292 292 291 291 290 289 289 289 288 288 288 288 288 288 288 288 288 288 287 287 287 287 287 287 287 287
313 312 317 317 315 321 321 313 309 311 317 318 314 317 316 312 312 307 302 304 302 298 296 298 299 299 298 299 300 300 301 301 301 301 301 300 300 300 299 299 299 298 298 298 298 297 297 297 297 297 296 296 296 296 296 295 295 295 295 294 294 294 294 293 293 293 293 292 292 292 291 291 290 290 290 289 289 289 288 288 288 288 288 288 288 288 288 288 288 288 288 288 288 288 288 288 288
315 315 318 313 310 317 321 318 315 315 319 319 315 317 317 316 317 311 306 309 309 302 297 296 297 298 298 299 300 301 301 301 301 301 300 300 300 299 299 299 298 298 298 298 297 297 297 296 296 296 296 296 295 295 295 295 294 294 294 294 294 293 293 293 292 292 292 291 291 290 290 290 289 289 289 289 288 288 288 288 288 288 288 288 288 288 288 288 288 288 288 288 288 288 288 287 287
313 314 313 314 318 319 318 318 321 321 321 321 318 316 315 316 317 313 310 312 312 307 300 297 297 297 297 299 300 300 301 301 301 301 300 300 299 299 299 299 298 298 297 297 297 297 297 296 296 295 295 295 295 294 294 294 294 293 293 293 293 292 292 291 291 291 290 290 289 289 289 288 288 288 288 288 288 287 287 287 287 287 287 287 287 287 287 287 287 287 287 287 287 287 287 287 287
308 310 309 313 319 320 318 318 318 320 321 320 320 317 316 317 317 316 315 314 311 308 305 302 298 296 298 300 301 300 301 301 301 300 300 299 299 299 299 299 298 298 297 297 297 296 296 296 295 295 294 294 294 293 293 293 293 293 293 292 292 291 290 290 290 289 289 288 288 288 288 288 287 287 287 287 287 287 287 287 286 286 286 286 286 286 286 286 286 286 286 286 286 286 286 286 286
309 312 312 312 313 315 317 316 315 320 322 321 321 318 317 317 314 314 317 314 308 307 309 305 297 297 300 301 300 301 301 301 300 300 299 299 299 299 299 298 298 298 297 297 296 296 295 295 294 294 294 293 293 293 293 293 292 292 292 291 290 290 289 289 288 288 288 288 288 287 287 287 287 287 287 287 287 287 287 287 287 286 286 286 286 286 286 286 286 286 286 286 286 286 286 286 286
311 312 313 313 313 315 317 316 315 317 319 321 321 318 318 315 307 308 312 309 303 302 304 302 298 299 302 301 301 300 300 300 299 299 299 299 299 299 299 298 298 298 297 297 296 295 295 294 294 293 293 293 292 292 292 292 291 291 290 290 289 289 288 288 288 288 288 288 288 287 288 288 288 288 288 288 288 287 287 287 287 287 287 286 286 286 286 286 286 286 286 286 286 286 286 286 286
Wind_Speed
5 5 5 5 4 3 3 3 2 3 3 2 1 0 1 2 1 2 2 2 1 2 1 1 2 3 1 1 1 2 2 2 1 2 2 3 7 7 4 2 3 4 8 9 11 13 16 16 14 12 12 12 13 13 12 11 10 9 8 6 5 4 5 6 5 4 3 3 3 2 1 1 2 2 3 2 3 3 3 3 3 2 2 2 1 1 1 2 3 2 3 5 5 4 4 4 5
2 2 3 2 2 1 1 4 2 2 4 3 1 1 1 2 1 1 1 0 1 2 2 1 2 2 1 0 1 2 0 1 0 2 3 4 6 6 5 2 2 5 8 9 10 11 14 15 14 13 11 11 12 13 12 10 9 9 8 7 5 4 5 5 6 5 4 4 4 4 3 2 1 1 1 2 3 4 4 3 2 2 2 1 1 0 1 2 3 2 2 4 5 5 4 4 4
1 0 1 1 2 3 2 4 2 1 3 3 2 2 1 1 2 4 4 2 2 4 2 1 2 2 1 0 0 2 2 1 2 3 4 5 5 7 6 3 3 4 7 8 10 10 12 14 14 13 12 11 11 12 11 10 9 9 8 6 5 5 5 5 6 5 4 4 4 4 3 2 1 1 2 2 4 5 5 4 2 1 1 0 1 2 2 2 4 4 3 3 4 4 4 4 4
3 3 2 1 2 4 3 3 2 2 3 1 1 2 2 2 3 4 3 3 2 3 1 0 1 1 1 1 0 2 3 3 3 3 3 6 7 8 8 5 4 4 6 8 9 10 10 12 13 12 11 11 11 11 11 11 10 9 8 6 5 5 4 5 5 4 4 4 4 5 3 3 3 3 3 4 6 7 6 5 2 1 1 1 1 3 5 4 4 5 3 3 5 6 7 6 5
5 4 3 1 1 2 2 3 2 3 2 3 2 1 3 4 3 4 4 4 2 3 3 2 1 1 1 1 1 1 4 4 3 3 3 6 7 8 9 7 6 4 5 7 8 9 10 11 12 12 11 11 11 11 11 10 10 9 8 7 5 4 3 4 4 3 4 5 5 5 4 4 4 4 4 6 8 8 7 5 1 1 2 1 1 4 6 6 5 4 1 2 6 8 9 9 8
5 5 5 4 4 3 3 4 3 3 2 3 2 2 4 4 4 5 5 2 1 4 4 3 2 2 1 1 2 2 4 4 3 3 3 5 7 9 10 9 7 5 4 5 7 9 9 10 11 11 11 11 10 10 10 10 10 9 8 7 6 5 4 3 3 3 3 4 5 5 5 4 5 5 5 7 9 8 7 4 1 1 2 2 1 3 6 6 6 4 3 5 8 10 10 9 9
5 4 4 5 5 4 3 3 3 2 1 3 2 3 4 3 4 5 5 2 1 3 4 3 4 2 2 3 3 4 6 5 4 1 3 5 8 10 11 10 8 6 5 4 5 7 9 10 10 11 11 11 10 10 9 9 9 9 8 7 6 5 4 4 3 3 4 4 4 5 5 5 5 5 6 8 7 7 6 3 0 1 2 3 3 4 6 7 8 8 7 7 8 9 9 8 8
6 2 3 4 3 4 3 3 3 2 0 3 3 4 4 4 2 2 3 1 1 2 3 2 3 2 1 6 3 5 8 5 4 1 3 5 8 11 12 11 9 7 5 4 4 5 7 9 10 10 11 11 11 10 9 9 9 9 8 8 7 5 5 5 4 3 4 4 4 4 4 5 5 5 7 7 5 6 6 1 1 1 2 3 4 5 7 8 10 11 10 9 8 8 8 7 6
6 2 3 4 2 3 2 1 1 2 2 3 4 5 3 3 1 1 1 1 1 3 4 2 2 3 2 6 5 7 9 6 4 2 3 5 7 9 11 11 9 7 6 5 4 4 5 7 8 10 10 11 11 10 10 9 9 10 9 8 7 6 6 6 5 4 3 4 4 4 4 5 5 6 6 6 5 5 5 1 1 1 2 3 5 6 7 9 11 12 12 11 8 7 6 5 3
5 4 3 4 3 3 2 0 0 1 3 4 5 5 2 1 1 0 1 1 1 3 4 2 1 3 3 4 6 8 11 10 6 3 3 4 4 6 8 10 8 7 6 5 4 3 3 5 6 9 10 11 11 11 10 10 10 10 9 9 7 7 7 6 5 5 4 4 5 5 5 5 6 6 6 5 5 5 5 3 1 2 3 4 6 6 7 9 11 12 11 8 6 4 3 1 0
3 4 4 4 3 2 2 3 2 2 4 4 3 2 1 1 0 1 1 1 1 3 3 3 2 3 3 4 7 9 12 12 9 5 2 2 1 2 4 7 8 7 6 4 4 4 3 4 5 7 9 10 11 12 11 11 10 10 10 9 8 8 8 7 6 6 5 5 5 5 5 5 5 5 5 5 5 6 6 4 3 4 5 6 7 8 9 11 12 11 8 5 5 4 1 1 2
1 2 3 3 2 2 3 2 2 4 4 3 1 2 3 1 1 1 1 2 3 4 2 3 2 3 2 2 6 8 10 10 8 5 2 0 1 1 1 3 5 7 6 5 3 2 2 3 4 5 7 9 10 12 12 12 12 11 11 11 10 10 9 8 7 7 6 5 5 4 5 5 5 5 5 5 5 6 7 6 4 5 7 8 9 9 10 12 12 9 6 5 4 3 1 2 2
3 2 4 3 2 2 3 2 2 3 3 1 1 2 3 1 1 1 1 3 5 3 3 2 2 2 2 1 3 3 8 10 8 4 1 0 1 3 3 1 2 4 5 4 4 3 1 1 3 5 6 8 10 11 12 12 13 12 12 12 11 11 11 9 8 8 7 7 6 5 6 6 5 6 6 6 6 5 6 7 5 5 6 8 10 10 10 12 12 9 6 5 4 2 1 1 2
4 4 4 3 0 1 3 1 1 2 0 2 1 2 3 1 2 2 2 2 4 2 4 3 2 2 3 3 1 3 10 9 7 4 1 1 1 3 5 5 2 0 3 2 2 3 3 3 2 3 5 7 9 10 11 12 13 13 13 13 13 13 12 10 9 9 9 8 8 7 7 7 7 7 7 8 8 7 7 7 7 7 7 9 12 11 10 11 11 9 6 5 4 2 1 1 2
5 4 5 3 2 1 2 1 1 4 2 2 1 3 1 3 3 1 2 1 3 3 5 4 4 4 2 2 3 8 10 7 6 3 1 1 0 3 5 7 6 4 2 2 2 2 2 3 4 4 4 6 8 10 11 12 12 13 14 15 15 14 13 11 10 10 10 10 10 9 10 9 8 9 9 9 9 8 9 9 9 9 9 10 13 13 11 11 11 8 6 4 4 3 1 1 2
5 4 5 3 2 1 3 2 2 3 2 3 1 3 3 2 3 2 1 2 5 6 5 5 6 5 3 4 5 9 10 7 6 3 2 2 2 3 5 7 8 7 5 5 4 5 5 4 4 4 5 5 6 9 10 12 12 13 14 15 15 15 14 13 12 12 12 12 12 12 12 11 10 10 10 10 10 10 11 11 10 11 10 11 14 14 11 10 10 8 6 4 3 3 2 1 2
4 3 5 3 2 3 4 4 3 3 2 2 3 4 3 1 3 5 7 5 5 6 7 7 5 3 3 6 8 10 10 9 8 6 6 5 4 5 6 7 8 9 8 7 7 7 7 7 6 5 5 5 6 8 9 11 12 13 13 14 14 14 14 14 13 13 13 13 14 13 13 12 11 11 11 12 12 12 13 13 12 12 11 12 15 15 12 11 11 9 6 3 2 2 2 2 3
3 2 3 1 3 2 4 6 6 3 1 1 3 5 3 2 5 8 8 4 3 7 9 4 2 1 3 8 11 13 12 10 10 9 8 8 7 7 7 8 8 9 9 8 8 8 8 9 9 8 7 6 6 7 9 9 11 12 13 14 14 14 14 14 13 14 14 14 14 14 13 12 12 12 11 11 12 13 14 14 14 13 12 14 15 16 15 14 12 10 7 4 2 2 3 3 4
3 3 3 1 4 3 3 6 7 3 1 2 3 4 3 2 6 6 5 6 6 7 7 2 2 2 5 9 9 10 10 9 9 8 9 9 9 9 9 9 9 9 9 10 10 10 10 10 10 9 9 8 8 7 8 9 10 10 11 12 13 14 14 14 14 14 14 14 14 13 13 12 12 12 11 11 12 13 15 15 14 12 13 15 15 16 17 16 12 9 9 7 4 3 3 4 4
2 3 2 3 5 3 2 4 6 3 3 3 2 2 3 3 4 3 3 9 10 3 1 1 4 7 6 6 4 4 6 7 7 6 7 8 9 9 10 10 10 10 10 10 11 11 11 11 11 10 9 9 9 8 7 8 9 9 10 11 12 12 13 14 15 15 15 14 14 14 13 13 12 11 11 11 13 14 15 15 13 12 14 15 15 16 17 17 13 11 11 9 6 4 3 4 5
1 3 2 4 3 1 1 1 3 4 4 3 2 3 5 2 3 4 3 5 8 1 2 3 9 8 5 4 3 3 3 4 4 4 5 6 6 7 8 8 8 8 8 9 10 11 12 12 11 11 10 9 9 9 8 7 7 8 9 9 11 12 13 15 14 13 14 14 13 13 13 13 12 12 12 12 13 15 15 13 12 13 14 14 14 15 16 17 16 14 14 10 8 6 5 5 6
2 1 3 5 5 2 1 0 1 4 4 3 3 3 3 2 3 6 6 4 5 4 3 6 8 4 2 3 2 2 2 3 2 2 2 3 3 4 4 5 6 6 7 8 9 10 11 12 12 12 11 10 9 9 8 7 6 6 6 7 9 10 13 15 15 15 14 13 13 13 14 13 11 11 13 14 15 15 16 14 13 14 13 12 13 15 16 18 18 17 17 13 9 8 6 7 7
0 1 3 4 5 3 3 2 3 5 5 5 4 3 3 4 6 8 9 9 9 9 8 6 4 3 0 1 2 2 3 3 3 3 2 2 3 3 3 4 5 6 7 8 8 7 7 9 11 12 12 11 10 9 9 8 6 5 4 5 5 7 10 9 13 16 14 13 13 14 16 16 13 11 12 14 15 16 16 14 14 14 13 12 14 16 17 18 17 17 19 16 12 10 7 8 8
1 1 2 2 5 5 4 5 7 9 9 9 7 6 6 6 5 5 7 9 10 9 5 3 5 4 2 1 2 3 4 4 4 4 4 4 4 4 4 5 5 6 6 7 7 7 6 6 9 11 12 11 11 10 10 9 7 6 5 4 3 8 12 9 11 15 14 14 14 14 17 18 17 15 15 14 14 14 12 11 13 15 15 16 17 17 15 16 16 16 19 16 14 12 9 8 9
2 2 2 1 4 6 7 10 12 12 12 10 8 8 8 8 6 4 4 7 7 6 5 5 5 2 1 2 2 2 4 5 6 6 6 7 7 6 6 6 6 6 6 6 6 7 6 4 5 9 12 12 12 11 11 10 9 7 6 5 4 8 14 14 15 17 15 13 12 12 15 17 15 15 17 18 18 14 9 11 14 16 17 19 19 17 16 16 15 15 17 17 16 14 11 10 8
2 2 3 4 7 10 11 12 11 11 11 9 6 5 5 6 5 3 4 7 7 7 8 6 4 2 3 3 3 2 3 4 6 7 8 8 8 8 7 7 7 6 6 5 5 6 5 4 2 6 10 12 13 12 13 12 11 9 8 7 6 7 10 11 12 14 15 14 12 10 11 15 15 14 15 17 20 16 11 13 14 15 17 19 18 16 17 17 14 14 16 17 15 14 15 13 9
1 2 6 7 10 13 12 12 12 12 12 9 5 3 2 5 4 3 6 9 10 10 9 7 5 4 3 5 5 5 3 3 4 5 7 9 8 8 7 7 7 7 6 5 4 4 4 3 2 4 7 10 12 13 13 13 12 11 10 9 8 7 7 7 9 12 14 16 16 13 11 14 13 11 13 14 14 13 12 14 14 14 15 18 17 13 13 14 14 12 13 15 16 17 18 14 8
1 4 7 9 10 13 11 11 12 8 6 4 3 2 1 4 3 2 8 13 12 11 9 6 5 4 3 6 7 6 6 5 4 4 4 6 7 7 6 6 6 6 6 5 4 3 3 2 1 3 6 8 10 12 13 13 13 12 11 10 9 7 6 7 9 9 11 13 15 14 14 14 10 8 10 11 10 9 9 10 9 8 9 12 13 12 11 12 13 11 11 13 15 16 16 13 9
2 4 4 8 9 9 8 4 3 1 1 2 1 1 3 1 2 2 9 14 11 9 8 5 4 4 5 7 7 7 7 7 6 6 5 4 5 5 5 5 5 5 5 5 4 2 1 1 2 4 5 7 8 10 11 12 12 11 11 10 9 9 7 6 5 6 7 8 11 13 15 14 9 7 8 8 8 7 7 8 8 8 7 8 9 10 10 11 13 12 11 11 11 12 13 12 11
2 3 1 5 7 5 4 3 2 2 2 1 2 2 5 4 2 3 8 11 9 8 7 5 5 6 7 7 7 6 7 7 7 7 6 5 4 4 4 4 4 4 4 4 4 2 1 1 3 4 6 6 7 8 9 10 10 10 10 10 9 9 8 7 6 7 9 7 6 9 13 12 9 9 9 8 8 8 7 7 8 10 10 9 8 9 9 10 12 11 10 9 8 10 11 11 13
2 1 2 2 2 5 5 4 3 3 2 1 4 1 4 4 3 2 8 11 9 7 7 6 7 7 7 6 6 6 6 8 8 8 7 5 4 3 3 3 3 3 4 4 3 2 1 2 2 4 5 6 7 7 8 8 8 9 9 9 8 7 7 8 8 7 8 9 6 6 7 8 9 9 8 8 7 7 7 7 6 8 9 9 9 8 8 10 12 11 10 9 9 10 10 11 13
2 1 3 2 1 5 7 5 1 1 1 2 4 2 4 4 4 2 8 13 11 9 9 8 8 7 6 6 5 6 6 8 9 8 6 4 3 3 2 2 3 2 3 3 3 3 3 3 4 4 4 5 6 7 7 6 6 7 7 7 7 7 7 9 10 7 7 9 6 5 5 5 5 4 5 6 6 6 8 8 8 7 7 7 10 10 10 10 11 11 11 10 11 11 11 11 12
3 0 3 3 2 3 5 3 1 1 1 2 2 2 3 2 5 2 6 13 13 11 10 8 8 6 6 5 5 5 6 7 8 6 4 3 2 2 2 3 3 3 4 4 4 4 4 5 5 4 5 5 5 6 5 5 5 5 6 7 7 8 7 7 9 8 7 9 6 4 4 5 4 5 6 5 5 6 5 7 9 8 7 10 12 11 10 10 11 12 12 13 13 12 11 10 11
3 1 2 4 3 2 3 2 2 3 2 1 3 1 4 3 7 2 3 10 12 11 10 9 8 6 4 4 4 4 5 6 5 4 2 1 1 2 3 4 5 5 5 5 5 4 4 5 5 5 6 6 6 6 5 6 6 6 7 7 6 6 5 6 6 6 6 8 8 6 7 8 8 8 8 6 5 5 4 3 6 8 9 12 13 11 10 11 13 14 13 13 13 12 12 10 10
4 3 2 3 3 3 4 3 2 4 3 2 3 3 8 7 7 3 2 8 10 11 11 9 7 5 3 2 3 3 4 4 3 2 1 2 3 3 4 5 5 5 5 5 5 4 4 6 6 6 7 7 7 7 7 7 7 7 7 6 5 6 7 7 5 4 4 3 3 3 4 4 5 6 7 7 8 7 7 6 6 7 7 7 9 11 11 12 14 15 14 13 13 13 13 13 14
6 6 4 4 4 4 4 4 4 2 3 4 4 5 9 10 6 1 1 6 9 10 9 7 5 3 2 2 2 3 3 3 2 1 1 3 4 5 5 5 5 5 5 6 6 5 6 7 8 8 10 11 10 9 9 8 7 7 8 7 7 8 8 6 5 6 6 4 3 3 2 1 2 4 6 8 9 9 10 10 10 10 10 8 7 8 9 10 11 13 13 12 13 14 15 16 17
6 5 4 4 5 5 3 2 4 1 1 5 5 6 9 11 7 1 1 4 6 7 6 4 3 2 2 2 2 3 3 2 2 2 3 4 5 5 5 5 6 6 6 6 7 7 8 9 9 10 12 12 10 9 9 8 8 9 10 10 10 11 10 8 8 8 8 6 5 4 2 2 3 5 7 8 8 9 10 11 12 13 14 13 11 10 10 11 11 10 10 11 12 13 14 15 17
4 5 4 4 4 6 4 1 4 1 2 4 1 2 9 10 7 2 1 4 3 4 4 3 3 3 3 3 3 3 2 1 1 2 4 5 6 6 6 6 7 7 8 8 8 10 10 11 11 13 13 11 10 10 10 10 11 11 12 13 13 14 13 12 12 13 12 11 10 8 7 6 5 4 4 5 5 6 7 9 11 13 13 13 13 13 14 15 15 15 14 14 14 15 15 17 19
3 4 3 3 3 3 4 2 3 1 3 3 3 3 9 9 4 1 1 3 2 3 4 4 5 5 5 4 3 3 1 1 3 4 5 7 7 7 7 8 9 10 11 11 12 13 13 13 14 15 14 13 14 14 13 15 16 15 15 16 15 15 16 15 15 16 15 14 13 12 12 11 11 10 9 9 8 7 7 7 8 8 9 10 11 12 13 14 15 15 14 15 16 16 16 17 18
3 3 3 4 3 2 3 3 3 1 2 2 2 4 9 6 2 1 1 2 3 2 4 5 7 7 6 6 5 3 3 4 6 8 9 10 10 10 11 12 14 15 16 17 17 17 17 17 17 18 18 18 19 19 18 19 19 18 18 18 16 17 18 17 16 16 14 13 13 12 11 11 10 9 9 9 8 8 8 8 8 9 9 9 9 9 10 10 10 11 11 12 13 13 13 14 15
4 5 6 5 4 5 6 3 2 2 3 1 1 3 7 4 3 3 0 2 3 3 5 7 8 9 8 8 7 6 7 9 11 12 13 14 15 16 18 19 20 21 21 21 21 21 21 21 20 20 21 21 21 21 20 19 18 18 18 17 17 17 18 16 15 15 14 12 12 11 11 10 10 9 8 8 8 8 8 8 8 9 9 10 10 10 10 10 10 10 10 11 11 11 11 11 12
4 6 10 9 8 7 5 1 3 2 3 1 2 1 5 3 4 5 1 1 1 2 4 6 7 9 10 9 9 9 11 13 15 17 18 20 21 22 23 23 23 23 23 23 23 22 22 21 21 21 21 21 21 21 20 18 17 17 17 16 16 15 16 15 14 14 13 12 11 12 11 10 10 9 9 9 9 9 9 9 9 9 10 10 10 11 11 10 11 11 12 12 12 12 11 10 10
2 5 9 10 7 6 5 4 3 1 3 2 2 3 3 5 6 4 1 2 3 2 4 7 9 10 10 11 11 13 14 16 18 20 22 24 25 25 25 25 24 24 23 23 22 22 21 21 20 20 20 20 20 20 19 16 16 16 15 14 14 12 12 13 13 12 11 11 11 10 10 10 10 10 10 10 10 10 10 10 10 11 11 11 12 11 12 12 13 13 13 13 13 13 13 12 12
3 3 5 7 7 7 7 6 4 3 2 2 1 3 2 4 6 3 1 2 5 5 6 7 10 12 12 13 14 16 17 19 21 23 25 26 26 26 25 24 23 23 22 22 21 20 19 19 18 18 18 19 18 18 17 14 13 13 12 11 11 11 11 12 11 9 10 10 8 8 9 9 9 9 10 10 10 10 10 10 11 11 11 12 12 12 13 14 14 14 14 14 14 14 14 14 15
4 1 5 6 6 6 5 6 3 1 2 3 3 1 1 5 5 3 2 2 7 8 7 8 13 15 15 16 17 18 19 21 23 25 26 26 26 25 25 24 23 22 21 20 19 18 17 17 16 16 17 17 17 15 14 12 11 10 10 9 9 10 10 10 9 8 9 8 6 7 8 8 8 9 9 9 9 10 10 11 11 11 12 12 13 13 13 13 13 13 14 15 15 15 15 15 15
4 6 7 5 5 5 4 4 3 3 1 5 5 4 3 4 4 2 2 3 8 6 4 8 16 19 18 19 20 21 22 23 24 25 26 26 26 25 24 23 22 21 20 19 18 17 16 15 14 14 15 15 14 13 11 11 10 9 8 8 8 9 9 9 8 7 7 6 6 6 7 7 8 8 8 9 9 9 10 10 11 11 12 13 13 13 13 14 14 15 15 16 15 16 16 16 16
9 8 6 6 5 4 3 2 3 2 3 6 6 6 4 3 5 4 3 4 5 3 2 6 13 19 22 22 23 24 24 25 26 26 27 26 25 24 23 22 21 20 19 18 17 16 14 13 11 11 13 13 12 11 9 9 8 7 7 7 7 8 9 8 6 5 5 4 4 5 6 7 7 7 8 8 9 9 9 10 10 11 12 12 12 13 13 14 15 15 15 15 15 16 16 16 16
7 4 4 4 3 3 3 4 2 1 5 5 4 2 4 4 5 4 5 5 5 5 5 8 14 21 26 25 25 26 26 26 27 27 27 27 26 24 23 22 20 19 19 17 16 15 13 11 9 9 11 11 10 9 7 7 7 6 6 7 7 7 8 6 5 4 5 4 5 6 7 7 7 7 7 8 8 8 9 9 10 10 10 11 11 12 13 13 14 14 14 15 15 15 16 16 16
3 4 6 4 2 2 2 3 1 3 6 4 2 1 3 5 6 7 7 6 7 7 6 8 16 24 27 27 28 28 28 28 28 28 28 27 26 25 23 22 20 19 18 17 15 13 12 10 8 6 8 9 8 7 6 5 5 5 6 6 6 6 6 5 4 5 5 5 6 6 6 6 6 6 6 7 7 7 8 8 8 8 9 10 10 11 11 12 12 13 13 14 15 15 16 16 17
4 5 6 4 2 1 2 3 2 4 4 2 2 2 2 3 5 8 7 4 4 6 6 6 12 22 28 29 30 29 29 29 29 29 29 28 27 25 24 22 20 19 18 16 14 13 11 10 8 6 6 7 7 6 5 4 4 4 4 4 4 4 4 4 4 4 5 5 5 5 6 6 6 7 7 8 8 8 8 8 8 8 8 9 9 9 10 10 11 12 12 13 13 14 15 16 16
4 4 5 4 4 4 4 4 3 3 2 2 2 2 3 3 3 4 4 3 2 3 5 5 8 16 25 28 30 31 31 31 31 30 29 28 27 25 24 22 21 19 17 16 14 12 11 9 8 6 5 6 6 5 4 3 3 3 3 2 3 2 2 3 3 3 4 4 5 5 6 7 7 8 9 10 10 10 10 10 10 9 9 9 9 10 10 10 11 11 12 12 13 13 14 15 15
2 2 5 3 4 4 2 3 4 2 2 3 2 3 3 3 2 3 4 5 3 2 3 6 9 14 21 27 31 33 33 33 32 32 31 29 28 26 25 23 21 19 17 16 14 12 11 9 8 7 6 5 5 5 4 4 3 2 2 1 1 1 1 2 2 2 3 3 4 5 6 7 7 8 9 10 10 10 11 11 11 11 11 11 12 12 13 13 13 14 14 15 15 15 16 17 17
2 2 4 4 4 6 3 1 1 3 1 3 3 3 3 1 3 3 5 6 3 1 1 6 12 15 21 29 33 36 36 35 34 34 32 30 29 27 25 23 21 19 17 16 14 13 11 10 9 8 7 6 6 6 5 4 4 2 1 2 1 2 2 2 2 2 3 4 4 5 6 6 7 7 8 9 10 10 11 11 11 12 12 13 14 15 16 16 17 18 18 19 19 20 20 21 22
5 3 5 3 2 4 3 1 2 3 3 4 2 4 3 2 2 3 4 5 6 3 2 6 12 18 23 30 35 39 39 37 35 34 33 31 30 28 25 23 21 19 17 16 15 14 12 12 11 9 8 8 7 7 6 6 5 4 4 4 4 4 4 4 4 4 5 5 5 5 5 6 6 7 8 8 9 10 11 12 12 13 14 15 16 16 17 18 18 19 19 20 21 21 22 23 24
4 4 4 4 3 2 2 2 2 1 3 5 2 4 4 4 5 3 4 9 9 6 4 5 12 20 26 31 36 39 39 38 37 37 35 33 31 28 26 24 22 20 18 17 16 15 14 13 13 12 11 10 9 8 8 7 7 7 6 6 6 6 6 6 6 6 6 6 6 5 5 5 6 6 7 8 9 10 11 12 13 14 15 16 16 17 17 18 18 19 20 20 21 21 22 23 23
2 3 2 2 2 4 3 3 3 3 2 4 3 2 3 4 6 9 11 13 10 8 7 9 16 24 30 34 38 41 42 43 41 40 38 35 32 29 26 24 22 21 20 18 17 16 16 15 14 13 13 12 10 10 10 9 9 9 9 8 9 9 8 8 8 7 6 5 5 4 4 4 4 5 7 8 9 10 11 12 13 14 15 16 17 17 18 19 19 20 20 21 22 22 23 23 24
3 4 4 2 1 2 1 1 2 3 3 3 3 4 3 3 4 8 10 9 9 11 10 11 18 26 31 34 37 41 44 45 42 41 38 34 32 29 27 25 23 22 21 20 19 18 18 17 16 15 14 13 12 12 11 11 11 11 11 11 11 10 9 8 7 6 5 4 3 3 4 5 6 7 8 9 10 11 12 13 14 15 16 17 18 18 19 20 20 21 22 23 23 24 24 25 25
6 6 7 7 5 4 2 4 2 2 2 4 3 5 5 3 2 4 5 3 4 9 10 11 18 26 30 32 34 37 41 42 42 40 37 34 33 31 28 26 25 24 24 23 22 21 20 19 17 16 15 14 14 14 13 13 14 14 13 13 12 11 10 8 7 5 5 4 4 4 5 6 8 9 10 11 12 13 14 15 16 17 18 19 19 20 21 21 22 23 23 24 25 25 26 27 27
Wind_Direction
285 281 283 283 297 298 338 4 88 26 62 93 336 83 235 241 309 306 321 325 292 305 256 288 149 155 167 103 175 190 173 164 154 76 92 327 344 351 6 59 99 129 163 176 182 181 180 186 192 191 190 187 188 190 189 193 198 210 222 228 233 248 262 275 276 273 261 251 249 229 172 101 95 87 82 69 51 38 28 23 29 44 71 79 103 96 352 354 357 5 5 8 23 28 25 16 12
290 279 291 268 327 325 319 22 92 353 48 85 294 177 278 301 326 258 195 154 217 324 310 232 182 204 255 139 149 157 201 296 127 69 61 3 358 4 16 45 79 126 154 170 182 183 180 184 190 195 197 194 193 193 195 197 202 214 229 239 248 266 271 277 277 278 265 240 230 210 196 192 152 85 51 36 30 17 5 1 10 52 73 87 122 201 291 324 350 353 340 352 7 14 17 3 348
11 52 42 142 29 56 98 33 84 63 68 86 290 235 306 320 240 234 221 249 295 328 315 211 197 208 180 113 107 120 57 48 76 52 55 31 21 20 31 51 55 118 146 163 180 186 182 183 187 194 198 200 199 198 201 206 212 220 233 245 254 271 275 277 279 273 256 244 233 216 213 229 258 318 351 1 3 352 341 337 339 61 87 132 205 246 273 299 338 336 312 323 333 341 341 337 332
62 72 56 103 66 56 68 39 112 111 101 138 325 266 261 199 240 256 276 345 347 352 347 290 161 208 270 354 105 119 31 65 78 42 56 44 35 34 43 59 57 99 137 153 173 186 188 186 187 192 195 199 202 203 204 209 218 223 232 240 249 267 275 283 288 274 245 245 238 226 234 258 284 309 328 341 346 340 331 324 318 64 108 174 250 266 275 281 320 327 298 305 318 321 317 317 318
64 54 31 147 103 53 78 72 97 88 140 177 94 285 250 217 254 294 332 24 39 33 17 3 80 339 303 31 83 100 28 58 65 25 51 50 46 49 50 60 63 85 128 143 160 177 190 193 192 193 194 198 201 203 204 209 215 220 226 228 232 242 255 274 283 273 249 245 242 238 247 268 292 311 325 337 339 338 334 327 316 104 132 176 246 274 282 283 307 323 300 309 317 315 311 310 313
52 48 53 96 92 77 103 84 86 85 181 177 107 272 268 232 245 309 338 29 61 38 25 29 29 344 85 40 4 40 14 16 13 13 65 60 59 60 55 56 60 74 118 138 147 162 181 194 199 198 196 198 200 201 202 206 208 213 215 213 216 218 235 249 248 253 244 241 241 243 253 270 294 306 317 334 337 342 345 339 312 135 154 197 234 275 294 304 308 308 294 305 313 310 306 307 312
37 39 61 95 68 50 97 99 136 124 177 185 154 242 275 282 251 314 344 62 75 34 26 23 356 346 88 7 6 34 12 359 349 20 86 73 72 65 56 51 54 65 96 132 143 153 168 186 198 202 201 201 203 203 200 199 201 209 209 203 212 218 230 238 237 237 234 240 243 245 253 266 285 299 315 332 336 349 356 354 164 154 175 221 248 283 305 319 316 308 303 309 311 304 299 306 313
28 44 76 95 37 30 90 102 166 171 165 226 250 241 276 318 278 313 346 62 22 7 9 10 3 34 44 350 15 34 18 12 357 49 104 87 80 65 56 48 48 56 75 113 143 155 160 177 191 200 204 205 208 208 204 200 198 205 209 206 211 217 229 238 240 239 232 241 252 252 257 274 291 303 314 333 343 358 2 6 137 157 187 242 271 292 306 317 316 313 316 320 311 298 297 308 315
32 68 85 85 69 37 52 65 161 232 256 249 255 253 287 329 296 328 327 336 354 341 350 2 35 42 360 1 49 45 31 32 19 88 114 100 84 66 62 55 50 50 62 89 124 157 164 174 186 198 203 206 210 212 209 206 201 203 212 216 217 215 223 235 241 247 246 246 264 269 265 280 296 306 308 323 338 357 7 7 137 185 215 256 279 293 305 314 315 315 321 322 315 303 299 309 315
34 60 96 84 78 55 32 226 197 250 247 260 264 273 298 311 292 252 274 289 343 339 357 11 55 40 17 33 60 52 46 45 47 92 119 114 93 65 66 64 57 50 60 83 109 144 169 180 188 198 204 208 211 214 211 210 210 208 215 222 227 227 229 242 250 255 260 254 266 275 274 279 288 300 302 306 318 334 350 337 284 246 263 273 285 299 310 318 321 325 331 330 329 326 307 298 228
30 45 86 84 71 108 158 202 261 278 267 295 292 318 31 270 286 175 310 303 317 328 360 18 31 29 31 74 73 64 54 46 48 67 96 105 83 41 48 59 56 44 46 62 92 130 161 185 196 201 208 211 213 217 213 211 215 213 215 221 228 232 237 249 256 260 268 267 268 273 277 276 279 287 285 289 303 313 318 313 284 260 275 284 293 305 317 327 330 335 346 346 339 340 339 141 134
47 25 61 90 108 163 176 182 262 291 301 330 40 48 44 78 101 130 337 326 326 330 343 20 20 11 19 103 96 75 49 38 40 46 61 17 288 275 316 41 47 36 28 29 44 88 141 176 195 205 212 215 216 219 217 213 215 216 215 222 228 230 237 247 252 259 266 271 271 267 266 266 267 267 267 268 277 296 298 293 279 262 273 284 292 306 321 332 336 339 350 351 341 339 36 123 128
106 145 75 98 148 159 143 158 269 312 338 326 189 8 8 28 55 82 81 317 317 345 354 7 31 9 344 344 134 87 21 21 22 24 47 348 250 240 234 223 50 30 16 10 6 7 12 195 196 204 211 217 220 221 222 217 215 215 216 224 230 231 236 241 244 251 258 265 269 263 258 259 256 253 254 255 254 261 274 280 277 271 276 280 286 299 318 334 338 337 342 348 349 356 61 123 132
102 142 93 114 90 132 148 130 270 110 100 262 248 353 353 46 54 98 118 318 297 7 353 343 10 351 331 354 112 331 351 2 0 4 38 28 222 222 225 220 208 8 3 349 336 339 334 324 287 233 217 216 221 223 226 223 219 215 215 222 228 232 235 236 238 243 249 256 263 261 256 256 251 243 240 247 253 249 255 268 268 269 274 277 283 294 313 328 334 333 334 341 348 360 56 145 145
97 118 92 110 55 23 172 148 143 119 150 225 16 1 55 95 57 97 143 324 294 320 330 326 333 327 329 352 320 319 332 340 342 346 5 360 255 204 212 219 222 227 251 252 236 243 273 297 302 294 259 231 221 222 226 228 226 220 218 222 226 231 234 233 234 237 242 249 256 254 253 257 249 241 238 241 251 253 253 256 260 261 262 270 281 291 306 316 323 332 335 337 341 342 325 209 168
82 98 79 84 102 180 177 165 137 112 190 212 55 27 96 101 20 6 270 289 295 307 317 321 320 311 313 311 300 310 314 312 313 300 275 270 247 212 205 214 224 234 244 246 230 221 222 232 258 282 280 261 236 223 222 227 229 229 225 225 229 233 235 234 233 233 235 239 245 247 250 253 249 244 239 238 243 250 253 254 260 261 263 273 282 289 299 307 314 326 334 336 330 318 301 263 209
57 72 70 74 149 196 184 177 171 140 241 245 65 55 88 18 345 341 320 302 286 303 321 330 323 303 300 296 295 298 295 291 283 273 264 246 236 218 210 212 219 231 241 246 237 227 222 219 224 234 249 256 248 234 223 223 226 231 232 231 233 236 237 237 236 235 235 236 239 242 246 246 245 245 242 242 243 247 253 256 258 259 266 274 280 288 295 302 308 318 319 307 309 292 270 256 233
43 100 80 92 165 188 179 179 189 161 282 284 46 37 56 2 332 334 322 295 273 305 323 355 90 151 295 295 295 294 289 282 273 263 252 239 233 221 216 216 218 226 231 235 234 231 227 223 221 220 220 222 233 238 231 224 221 225 231 234 236 239 241 241 240 238 239 241 242 244 247 246 244 244 241 243 245 250 256 259 259 260 263 266 276 287 292 295 301 316 318 296 285 284 262 245 231
67 110 74 202 196 210 193 183 189 167 340 299 360 15 38 336 311 331 321 292 304 319 326 33 139 266 294 294 289 286 285 278 266 250 236 230 225 219 220 221 223 228 229 232 232 230 227 224 224 221 217 212 212 221 229 229 223 221 224 230 233 236 239 241 242 241 244 245 245 249 249 248 249 250 244 240 243 251 258 261 261 259 261 268 275 280 285 291 295 313 323 309 288 283 276 256 235
77 95 70 239 220 234 232 209 207 210 281 296 337 327 324 306 281 297 295 298 310 325 317 324 313 312 321 322 316 296 288 280 268 244 227 223 220 219 220 222 227 232 236 239 240 239 233 224 221 221 221 218 212 207 214 225 226 223 221 225 229 232 237 242 240 238 242 245 247 251 251 248 249 250 249 248 245 249 257 261 261 253 257 266 269 274 283 288 289 302 316 315 299 290 298 287 258
123 106 146 206 186 204 267 251 240 247 267 269 277 296 306 299 244 259 259 298 310 327 146 304 315 319 348 2 7 343 306 294 281 251 234 225 223 224 223 227 231 238 246 252 255 254 248 237 224 216 217 220 218 207 202 211 221 225 223 222 225 228 233 242 247 247 248 253 257 260 263 259 253 251 247 249 249 251 256 258 256 253 260 266 267 274 281 284 288 300 309 314 310 298 302 302 281
134 126 172 173 150 180 282 189 253 261 260 254 251 276 288 264 258 254 234 238 282 297 281 298 304 300 360 3 357 341 308 299 291 261 246 229 231 237 240 250 257 266 275 277 278 273 263 251 234 217 212 214 217 212 201 198 208 222 225 226 227 223 224 230 239 252 259 264 268 270 275 271 265 267 257 253 255 257 261 259 255 253 260 270 273 276 281 287 291 301 308 311 314 305 305 310 296
169 250 195 187 189 222 273 249 274 278 261 264 259 250 249 265 283 262 235 236 260 278 287 289 264 208 181 353 331 307 283 278 281 280 265 243 250 255 263 269 276 283 288 293 295 294 283 261 244 225 213 211 211 210 205 195 193 203 216 228 230 231 242 241 231 239 250 257 263 261 267 265 257 266 268 265 267 269 269 263 259 257 259 267 268 268 278 288 289 299 306 306 311 306 307 313 303
105 260 230 215 227 244 276 275 287 286 274 279 274 260 261 260 273 266 233 239 254 261 269 237 200 179 170 206 285 291 288 288 284 289 296 298 294 283 284 287 291 297 303 309 311 312 309 277 251 229 213 208 206 206 205 194 185 187 196 208 205 218 231 239 232 236 238 241 253 255 259 261 255 257 262 268 272 273 273 260 255 254 253 257 254 252 270 286 289 297 300 302 310 305 303 308 302
130 244 273 244 257 274 290 290 290 286 283 286 272 256 262 252 245 254 228 227 231 225 212 189 180 164 195 225 251 270 285 294 297 300 302 305 308 310 309 306 307 312 316 319 320 321 323 307 261 230 213 206 204 203 203 194 184 183 186 193 191 204 208 213 227 234 232 229 238 247 250 250 252 255 257 265 266 265 277 266 252 249 248 251 251 255 270 279 286 297 298 304 310 302 296 298 299
200 225 301 292 291 301 299 292 288 284 285 282 261 250 255 237 232 249 227 213 203 191 192 184 172 209 254 307 323 303 279 283 296 302 304 305 305 305 304 302 304 310 318 325 325 322 324 318 267 226 214 208 207 205 203 197 188 186 186 190 194 206 204 206 222 226 230 234 236 242 239 237 248 258 257 263 262 257 266 264 257 260 256 246 247 260 267 266 278 297 300 301 300 292 293 294 296
240 301 310 293 298 305 298 287 285 285 283 273 242 229 213 189 193 246 210 194 186 179 183 186 191 224 272 318 318 316 308 289 291 295 300 302 300 296 293 295 301 310 319 328 328 322 326 321 243 215 210 207 209 207 205 199 194 192 192 195 195 205 206 207 219 216 223 234 240 246 235 230 245 255 253 259 260 258 259 258 261 271 262 241 242 261 265 262 272 293 303 297 287 286 293 293 293
337 341 311 299 315 307 292 282 283 287 287 278 222 213 127 169 200 241 179 168 170 179 186 190 199 234 287 300 300 308 313 320 324 315 298 287 286 291 294 299 301 309 314 317 318 316 327 326 222 206 204 205 206 204 202 198 198 196 196 202 196 196 203 214 226 217 217 230 240 244 227 224 241 241 242 254 258 260 257 254 254 256 253 241 246 266 273 269 268 284 299 290 285 289 293 285 280
352 16 321 308 339 322 304 305 289 300 304 350 60 288 344 287 241 146 163 166 169 187 200 201 211 252 272 280 290 300 309 322 330 325 320 302 294 301 313 318 316 315 310 309 315 315 304 266 199 195 197 201 201 199 198 197 199 199 202 208 201 201 200 203 227 221 219 234 244 238 217 218 239 224 216 233 237 241 244 241 233 227 239 245 253 271 280 277 271 279 287 281 292 307 301 287 284
326 38 40 318 348 327 325 14 349 349 301 305 80 297 298 294 270 142 171 178 180 200 209 217 234 249 257 265 280 293 304 313 319 323 327 330 321 322 331 334 338 336 332 332 329 325 275 198 179 181 185 193 195 194 196 197 201 205 212 214 213 221 212 199 211 215 221 233 241 229 213 218 243 238 230 238 243 242 230 220 225 229 233 236 246 260 261 262 264 268 275 277 298 312 306 296 295
323 357 34 353 347 286 308 351 334 344 319 184 133 245 267 250 251 196 193 187 189 219 224 233 243 241 246 252 265 282 296 304 315 323 325 332 338 345 353 355 1 1 4 3 354 21 90 134 144 162 171 179 185 188 192 197 203 208 216 216 216 224 211 197 196 201 219 230 241 235 221 232 249 254 256 254 249 241 221 213 229 235 230 231 232 236 245 256 258 257 262 272 286 292 287 284 289
18 315 310 340 170 271 308 340 348 221 302 82 127 232 273 228 233 222 194 195 205 231 237 238 242 235 233 240 248 267 288 299 308 315 317 328 345 2 20 29 32 36 38 36 47 66 84 102 105 123 145 159 169 175 181 189 196 199 205 208 207 204 197 197 198 197 202 211 234 241 222 239 252 266 281 268 255 243 228 231 246 239 224 237 237 229 240 253 256 257 254 257 266 273 275 279 285
3 238 251 271 199 270 315 337 50 180 229 32 80 237 289 223 211 192 175 197 212 226 237 239 236 233 221 224 238 256 278 286 292 299 305 316 349 33 58 75 80 86 84 81 82 80 83 95 100 109 124 135 145 152 158 164 170 175 184 190 196 201 199 193 195 204 206 210 238 260 229 246 259 270 292 294 280 273 254 244 257 255 234 248 252 236 232 247 261 264 259 258 258 257 261 269 277
308 343 241 251 217 216 286 302 10 54 119 355 22 244 269 226 192 210 182 195 211 222 233 236 226 226 219 218 240 255 266 272 278 282 278 287 83 94 102 105 106 104 102 103 99 95 94 97 104 110 115 120 126 133 135 138 139 143 156 169 177 182 171 153 170 201 216 219 239 261 254 253 259 271 294 321 326 314 311 279 272 276 259 259 265 253 243 257 269 272 272 275 274 267 268 271 275
190 185 207 250 241 227 248 261 305 31 37 331 355 287 276 259 195 204 222 193 208 222 225 226 220 217 219 231 254 262 271 273 281 285 232 123 117 119 122 119 116 115 116 120 115 113 115 107 104 105 107 105 106 110 111 111 112 122 132 135 138 132 129 136 152 169 174 192 216 243 260 264 272 282 299 318 324 316 313 309 302 301 295 287 276 259 254 260 268 273 275 279 283 281 280 281 283
163 170 160 191 226 247 232 234 265 5 14 294 273 255 272 273 236 161 136 190 203 218 216 215 217 217 237 259 276 285 297 291 306 2 105 119 129 130 131 129 122 124 122 120 121 124 121 112 109 107 103 99 96 96 92 89 86 96 107 107 116 120 119 128 128 124 128 133 146 150 163 225 270 284 295 302 302 294 291 295 299 305 309 311 298 272 268 270 270 273 274 278 280 279 279 280 284
130 133 138 190 218 259 239 231 292 25 107 263 247 244 264 269 268 348 80 193 196 211 212 212 216 226 257 272 293 300 303 296 351 66 120 131 138 139 140 138 128 127 124 121 127 130 123 118 119 111 104 101 99 98 94 92 87 85 90 93 98 103 99 94 92 96 100 99 107 123 148 203 248 270 286 293 290 284 285 288 293 300 303 303 302 299 294 288 284 281 278 278 278 277 281 285 288
116 133 172 224 222 252 256 240 314 15 174 263 300 278 267 261 266 317 195 200 201 220 218 218 220 226 247 261 273 280 296 308 71 100 133 140 146 147 143 137 132 130 126 127 129 127 123 122 118 108 104 107 104 101 101 101 97 92 91 90 89 90 88 82 82 81 76 72 72 71 67 61 47 23 355 341 330 313 302 298 297 300 303 304 303 303 301 297 294 292 289 285 284 284 287 289 292
119 125 166 240 224 252 288 304 333 31 175 262 6 336 271 261 246 201 190 204 212 231 223 211 212 218 227 233 240 241 260 98 120 130 137 139 142 141 137 132 131 130 127 127 124 119 119 116 112 107 106 108 104 102 101 98 96 94 92 90 88 89 88 84 82 79 74 70 68 65 60 56 50 43 36 26 16 6 351 338 330 326 322 317 310 305 302 299 297 297 296 293 292 292 291 292 296
167 152 172 231 212 194 271 287 320 17 139 246 8 331 279 272 244 178 80 188 188 188 201 201 205 212 216 216 216 198 169 150 145 143 136 133 132 129 129 127 124 123 121 120 117 114 114 112 109 108 107 104 100 98 96 93 92 92 92 91 93 93 91 88 86 85 82 78 76 73 68 62 54 46 41 34 25 18 11 4 360 356 351 345 337 329 322 318 315 311 309 307 304 301 298 299 302
229 204 200 214 201 203 231 267 318 346 21 84 107 331 292 286 269 252 184 158 162 147 176 190 198 205 208 207 198 178 166 159 152 145 136 130 128 126 124 122 119 118 117 115 114 113 111 110 108 106 104 100 98 95 92 89 89 90 91 92 91 90 90 91 88 86 84 81 77 71 65 60 51 44 39 32 25 19 13 9 4 360 357 355 351 349 349 349 346 342 339 336 332 329 325 321 317
265 228 208 210 208 208 219 2 30 12 340 286 142 289 287 313 293 255 275 323 205 164 185 193 196 200 203 198 184 172 166 159 150 141 134 130 127 125 121 119 118 117 115 113 111 110 108 107 105 104 102 99 96 93 89 87 86 86 85 85 85 83 88 89 82 77 74 67 63 58 53 50 43 36 33 28 23 20 16 15 13 10 8 6 6 4 2 2 1 360 359 357 354 353 351 344 336
271 245 204 203 196 182 179 145 115 170 247 266 119 174 250 314 305 266 284 297 270 261 229 212 206 203 201 193 180 173 165 156 148 139 134 131 127 125 122 120 120 117 114 112 110 108 107 106 105 104 102 98 95 92 89 85 81 81 81 82 84 81 78 78 73 68 64 59 56 53 48 44 40 33 30 27 23 21 20 19 18 17 16 17 17 14 13 14 14 14 14 13 13 9 4 2 3
239 255 162 166 169 176 181 162 173 228 253 320 16 148 210 290 286 286 327 275 272 253 235 225 215 207 201 192 181 174 165 154 147 141 137 133 130 128 125 124 122 119 115 112 111 109 108 107 105 103 100 96 92 89 88 85 80 81 83 82 83 77 69 71 73 68 66 63 56 54 49 43 38 33 29 26 24 23 20 19 19 18 16 18 18 16 19 23 22 22 21 20 19 17 14 14 14
245 202 115 137 152 160 153 146 178 312 359 291 291 135 206 262 269 327 22 291 272 245 217 214 214 208 200 191 182 174 165 156 149 144 139 136 134 131 129 127 124 120 117 114 113 111 108 107 105 103 100 95 92 90 91 94 88 82 81 75 72 73 69 71 75 73 72 66 52 52 47 38 36 30 26 23 21 19 17 17 17 14 13 15 16 17 21 22 21 21 21 21 21 20 20 21 18
177 122 90 77 72 79 93 115 122 51 12 249 238 183 202 271 278 312 37 271 262 244 206 206 209 206 200 191 183 175 167 159 152 147 144 141 138 136 133 130 126 123 122 120 117 114 112 110 109 109 107 103 101 100 101 100 93 81 76 69 64 70 71 72 75 72 71 61 45 48 43 36 34 26 23 22 17 15 14 12 9 7 10 13 13 14 15 14 15 18 19 21 21 21 22 23 21
135 110 73 61 43 47 56 61 92 76 273 249 230 199 191 270 274 235 202 224 213 171 182 209 204 204 200 191 183 177 169 162 156 152 149 146 143 140 137 133 131 130 128 126 122 120 118 115 116 116 112 109 107 105 102 98 93 80 75 72 64 70 74 75 75 69 70 61 44 48 43 35 30 23 21 17 12 13 10 7 5 5 6 6 5 6 7 8 11 13 15 15 14 15 17 18 18
120 91 95 93 5 16 28 358 51 152 252 259 258 209 174 220 255 241 229 233 195 168 183 192 194 202 200 191 184 179 172 165 161 158 155 152 149 145 142 140 139 138 134 130 127 126 125 122 122 119 113 111 107 104 99 94 91 79 73 73 65 70 77 77 68 62 65 51 35 40 36 30 25 20 16 9 6 7 5 3 3 2 0 359 0 3 3 4 6 5 5 4 5 6 6 8 9
92 96 117 111 346 8 350 293 249 227 244 266 284 201 195 228 247 248 239 232 214 205 201 192 194 198 196 190 185 180 175 170 166 164 160 157 154 150 148 148 147 143 139 136 134 133 135 134 134 125 114 115 112 106 101 93 89 76 71 69 62 67 74 67 49 42 40 30 27 30 26 23 17 10 3 358 357 359 359 357 355 354 355 356 359 0 360 359 358 356 355 355 355 355 355 358 359
156 149 142 138 133 138 256 256 261 259 255 293 282 240 243 257 264 254 241 229 214 210 216 216 204 199 194 188 185 182 179 175 171 169 166 162 159 156 155 155 152 148 146 145 144 144 145 145 147 145 126 122 123 120 112 106 101 84 78 73 61 62 56 39 28 23 20 16 15 12 6 5 1 356 354 352 354 357 356 354 354 355 356 356 356 353 351 349 347 345 344 344 344 344 346 347 348
178 161 135 147 158 171 214 215 214 243 275 324 300 236 195 197 270 279 279 308 286 237 230 223 211 204 196 189 187 187 184 179 177 175 170 166 164 163 162 160 157 154 153 154 155 156 160 157 157 162 154 139 141 146 142 139 137 110 102 97 63 52 33 16 7 3 360 353 349 345 345 347 345 344 345 347 351 353 352 352 353 353 352 351 350 347 345 344 342 341 340 339 338 338 337 336 336
200 124 112 173 188 154 160 193 175 173 306 305 238 229 221 200 268 299 327 322 284 259 257 213 201 201 196 193 193 191 188 184 182 179 174 171 171 170 168 165 162 162 162 163 164 166 172 174 172 174 177 170 166 173 173 170 167 148 128 130 64 23 346 332 331 335 330 326 329 328 328 331 331 333 336 339 341 341 340 340 339 339 339 337 335 333 332 331 330 330 329 329 328 328 328 328 328
157 135 172 211 179 119 111 228 65 79 270 266 195 238 292 301 286 317 356 326 270 195 290 207 196 194 196 198 197 194 192 188 185 182 178 177 178 175 171 169 168 168 169 172 174 176 180 186 189 191 194 194 190 191 194 193 190 192 196 207 245 262 262 274 282 289 296 301 304 305 309 313 317 323 325 325 325 323 321 320 319 319 318 316 315 314 314 314 315 315 316 317 317 318 319 320 321
126 185 203 183 130 97 105 218 353 53 243 272 207 215 246 186 245 319 350 295 258 205 172 201 197 196 201 203 200 197 195 191 188 185 183 184 183 179 175 173 174 174 177 181 184 187 189 194 199 204 207 210 209 207 207 211 213 220 229 233 246 252 249 254 259 263 268 272 277 284 292 296 301 305 305 305 305 303 302 302 302 303 303 304 304 304 305 305 306 307 308 309 310 311 312 313 314
135 180 171 121 146 170 114 169 218 175 238 281 259 214 221 190 201 218 215 234 234 202 177 201 203 201 205 206 203 201 198 194 192 189 189 190 186 182 179 178 179 181 185 189 192 196 200 203 205 208 211 214 217 218 218 223 225 230 240 244 247 248 246 248 249 251 253 255 262 269 274 279 285 291 294 296 297 298 298 299 299 300 300 301 301 300 300 301 301 301 302 303 304 305 306 307 309
67 103 122 90 147 167 154 158 166 162 210 268 274 239 228 218 198 180 193 213 207 180 186 212 212 207 206 205 204 203 200 197 195 193 194 193 188 185 184 184 185 187 191 196 199 203 207 210 212 213 216 218 220 224 225 230 235 239 245 247 245 243 241 241 242 242 245 245 251 259 269 284 295 300 302 303 303 303 302 302 302 301 300 300 299 299 298 298 299 299 300 301 302 303 304 305 306
145 150 169 182 116 119 177 197 135 135 165 212 270 281 245 227 203 179 193 210 193 183 195 211 214 211 210 208 206 205 203 200 199 198 197 194 189 188 188 189 191 195 199 203 205 209 211 214 216 217 219 222 225 230 232 235 240 242 244 244 243 241 238 238 237 236 240 247 261 285 303 312 317 317 316 314 313 312 310 309 309 307 306 304 303 302 301 301 301 302 302 303 304 305 306 307 308
173 184 180 181 169 131 163 241 201 126 173 178 207 269 255 218 195 185 196 220 210 208 212 214 216 215 214 212 210 208 207 205 204 201 198 194 192 193 193 193 197 201 205 208 209 213 215 217 219 219 222 225 229 234 236 238 241 241 243 243 241 239 236 235 237 240 253 272 294 315 325 328 329 327 324 322 320 319 317 316 315 313 312 310 308 307 306 306 306 305 305 306 307 307 308 309 310